| time (UTC) | temp F | wind direction | speed knots | gust knots | rain 1hr in | rain 24hr in | rain mn in | humidity % | barometer mb |
| 20260507210557 | 74 | 40 | 5.2 | 10.4 | 0.00 | 0.00 | 0.00 | 28 | 1011.0 |
| 20260507210056 | 74 | 24 | 4.3 | 11.3 | 0.00 | 0.00 | 0.00 | 27 | 1011.1 |
| 20260507205556 | 74 | 16 | 6.1 | 11.3 | 0.00 | 0.00 | 0.00 | 29 | 1011.1 |
| 20260507205052 | 74 | 328 | 3.5 | 13.9 | 0.00 | 0.00 | 0.00 | 28 | 1011.3 |
| 20260507204600 | 73 | 33 | 7.0 | 13.9 | 0.00 | 0.00 | 0.00 | 31 | 1011.4 |
| 20260507204051 | 72 | 47 | 5.2 | 9.6 | 0.00 | 0.00 | 0.00 | 29 | 1011.4 |
| 20260507203548 | 71 | 47 | 4.3 | 8.7 | 0.00 | 0.00 | 0.00 | 29 | 1011.5 |
| 20260507203048 | 72 | 7 | 3.5 | 10.4 | 0.00 | 0.00 | 0.00 | 28 | 1011.7 |
| 20260507202545 | 73 | 350 | 2.6 | 9.6 | 0.00 | 0.00 | 0.00 | 28 | 1011.7 |
| 20260507202043 | 73 | 18 | 5.2 | 9.6 | 0.00 | 0.00 | 0.00 | 27 | 1011.6 |
| 20260507201544 | 73 | 62 | 2.6 | 6.1 | 0.00 | 0.00 | 0.00 | 29 | 1011.7 |
| 20260507201041 | 72 | 74 | 2.6 | 13.0 | 0.00 | 0.00 | 0.00 | 29 | 1011.8 |
| 20260507200540 | 72 | 359 | 6.1 | 13.9 | 0.00 | 0.00 | 0.00 | 29 | 1011.8 |
| 20260507200040 | 71 | 345 | 7.0 | 11.3 | 0.00 | 0.00 | 0.00 | 30 | 1011.9 |
| 20260507195540 | 70 | 282 | 7.0 | 12.2 | 0.00 | 0.00 | 0.00 | 31 | 1011.9 |
| 20260507195040 | 70 | 240 | 7.0 | 13.9 | 0.00 | 0.00 | 0.00 | 32 | 1012.1 |
| 20260507194535 | 70 | 248 | 7.8 | 13.0 | 0.00 | 0.00 | 0.00 | 30 | 1012.0 |
| 20260507194034 | 69 | 220 | 3.5 | 10.4 | 0.00 | 0.00 | 0.00 | 31 | 1012.1 |
| 20260507193532 | 69 | 258 | 3.5 | 9.6 | 0.00 | 0.00 | 0.00 | 31 | 1012.3 |
| 20260507193032 | 69 | 219 | 3.5 | 9.6 | 0.00 | 0.00 | 0.00 | 31 | 1012.4 |
| 20260507192527 | 69 | 232 | 4.3 | 12.2 | 0.00 | 0.00 | 0.00 | 31 | 1012.4 |
| 20260507192026 | 70 | 187 | 6.1 | 16.5 | 0.00 | 0.00 | 0.00 | 31 | 1012.5 |
| 20260507191525 | 70 | 237 | 8.7 | 17.4 | 0.00 | 0.00 | 0.00 | 29 | 1012.5 |
| 20260507191027 | 71 | 245 | 7.8 | 14.8 | 0.00 | 0.00 | 0.00 | 31 | 1012.5 |
| 20260507190522 | 71 | 257 | 6.1 | 13.9 | 0.00 | 0.00 | 0.00 | 30 | 1012.7 |
| 20260507190034 | 70 | 225 | 7.0 | 13.9 | 0.00 | 0.00 | 0.00 | 30 | 1012.7 |
| 20260507185519 | 70 | 252 | 4.3 | 8.7 | 0.00 | 0.00 | 0.00 | 30 | 1012.9 |
| 20260507185020 | 70 | 219 | 5.2 | 10.4 | 0.00 | 0.00 | 0.00 | 30 | 1012.9 |
| 20260507184525 | 69 | 177 | 6.1 | 10.4 | 0.00 | 0.00 | 0.00 | 29 | 1013.0 |
| 20260507184014 | 70 | 213 | 6.1 | 11.3 | 0.00 | 0.00 | 0.00 | 32 | 1013.1 |
| 20260507183513 | 70 | 205 | 6.1 | 13.0 | 0.00 | 0.00 | 0.00 | 30 | 1013.2 |
| 20260507183018 | 69 | 203 | 5.2 | 10.4 | 0.00 | 0.00 | 0.00 | 30 | 1013.2 |
| 20260507182510 | 69 | 191 | 6.1 | 12.2 | 0.00 | 0.00 | 0.00 | 29 | 1013.4 |
| 20260507182011 | 69 | 256 | 8.7 | 12.2 | 0.00 | 0.00 | 0.00 | 30 | 1013.4 |
| 20260507181507 | 69 | 201 | 5.2 | 8.7 | 0.00 | 0.00 | 0.00 | 31 | 1013.5 |
| 20260507181005 | 69 | 167 | 5.2 | 10.4 | 0.00 | 0.00 | 0.00 | 30 | 1013.6 |
| 20260507180503 | 68 | 240 | 3.5 | 8.7 | 0.00 | 0.00 | 0.00 | 31 | 1013.7 |
| 20260507180007 | 68 | 195 | 4.3 | 8.7 | 0.00 | 0.00 | 0.00 | 31 | 1013.8 |
| 20260507175501 | 68 | 195 | 4.3 | 13.9 | 0.00 | 0.00 | 0.00 | 31 | 1013.9 |
| 20260507175100 | 68 | 223 | 7.0 | 13.9 | 0.00 | 0.00 | 0.00 | 31 | 1014.0 |
| 20260507174559 | 68 | 181 | 5.2 | 11.3 | 0.00 | 0.00 | 0.00 | 32 | 1013.9 |
| 20260507174056 | 68 | 245 | 6.1 | 12.2 | 0.00 | 0.00 | 0.00 | 31 | 1014.2 |
| 20260507173555 | 68 | 163 | 8.7 | 12.2 | 0.00 | 0.00 | 0.00 | 31 | 1014.2 |
| 20260507173056 | 68 | 182 | 7.8 | 11.3 | 0.00 | 0.00 | 0.00 | 31 | 1014.1 |
| 20260507172552 | 67 | 225 | 5.2 | 13.0 | 0.00 | 0.00 | 0.00 | 31 | 1014.2 |
| 20260507172051 | 67 | 154 | 8.7 | 13.9 | 0.00 | 0.00 | 0.00 | 31 | 1014.4 |
| 20260507171554 | 66 | 150 | 8.7 | 13.9 | 0.00 | 0.00 | 0.00 | 31 | 1014.5 |
| 20260507171047 | 66 | 192 | 7.8 | 10.4 | 0.00 | 0.00 | 0.00 | 31 | 1014.5 |
| 20260507170546 | 66 | 157 | 8.7 | 11.3 | 0.00 | 0.00 | 0.00 | 32 | 1014.5 |
| 20260507170048 | 65 | 186 | 8.7 | 12.2 | 0.00 | 0.00 | 0.00 | 32 | 1014.7 |
| 20260507165544 | 65 | 221 | 8.7 | 13.0 | 0.00 | 0.00 | 0.00 | 33 | 1014.8 |
| 20260507165045 | 64 | 170 | 8.7 | 13.0 | 0.00 | 0.00 | 0.00 | 33 | 1014.7 |
| 20260507164540 | 64 | 182 | 7.0 | 12.2 | 0.00 | 0.00 | 0.00 | 34 | 1014.9 |
| 20260507164039 | 64 | 190 | 8.7 | 13.0 | 0.00 | 0.00 | 0.00 | 34 | 1015.0 |
| 20260507163540 | 64 | 166 | 9.6 | 12.2 | 0.00 | 0.00 | 0.00 | 33 | 1015.1 |
| 20260507163036 | 64 | 144 | 9.6 | 11.3 | 0.00 | 0.00 | 0.00 | 33 | 1015.0 |
| 20260507162535 | 63 | 151 | 7.8 | 11.3 | 0.00 | 0.00 | 0.00 | 36 | 1015.0 |
| 20260507162032 | 63 | 150 | 9.6 | 13.0 | 0.00 | 0.00 | 0.00 | 35 | 1015.1 |
| 20260507161531 | 63 | 195 | 8.7 | 12.2 | 0.00 | 0.00 | 0.00 | 36 | 1015.2 |
| 20260507161029 | 62 | 161 | 9.6 | 14.8 | 0.00 | 0.00 | 0.00 | 37 | 1015.3 |
| 20260507160530 | 61 | 154 | 9.6 | 12.2 | 0.00 | 0.00 | 0.00 | 38 | 1015.4 |
| 20260507160026 | 61 | 165 | 8.7 | 13.0 | 0.00 | 0.00 | 0.00 | 39 | 1015.5 |
| 20260507155525 | 60 | 110 | 7.8 | 14.8 | 0.00 | 0.01 | 0.00 | 40 | 1015.6 |
| 20260507155023 | 59 | 146 | 9.6 | 14.8 | 0.00 | 0.01 | 0.00 | 41 | 1015.7 |
| 20260507154522 | 58 | 156 | 10.4 | 15.6 | 0.00 | 0.01 | 0.00 | 39 | 1015.7 |
| 20260507154021 | 57 | 153 | 10.4 | 14.8 | 0.00 | 0.01 | 0.00 | 41 | 1015.8 |
| 20260507153519 | 56 | 153 | 9.6 | 12.2 | 0.00 | 0.01 | 0.00 | 42 | 1016.0 |
| 20260507153018 | 55 | 162 | 7.8 | 12.2 | 0.00 | 0.01 | 0.00 | 43 | 1016.3 |
| 20260507152516 | 55 | 170 | 7.8 | 12.2 | 0.00 | 0.01 | 0.00 | 43 | 1016.2 |
| 20260507152014 | 55 | 156 | 7.8 | 12.2 | 0.00 | 0.01 | 0.00 | 43 | 1016.3 |
| 20260507151515 | 56 | 157 | 7.8 | 12.2 | 0.00 | 0.01 | 0.00 | 43 | 1016.4 |
| 20260507151011 | 56 | 159 | 8.7 | 12.2 | 0.00 | 0.01 | 0.00 | 43 | 1016.4 |
| 20260507150510 | 56 | 166 | 8.7 | 12.2 | 0.00 | 0.01 | 0.00 | 43 | 1016.4 |
| 20260507150012 | 55 | 167 | 9.6 | 13.0 | 0.00 | 0.01 | 0.00 | 46 | 1016.4 |
| 20260507145507 | 53 | 169 | 7.8 | 12.2 | 0.00 | 0.01 | 0.00 | 50 | 1016.5 |
| 20260507145005 | 51 | 190 | 7.8 | 11.3 | 0.00 | 0.01 | 0.00 | 51 | 1016.6 |
| 20260507144504 | 50 | 175 | 7.0 | 10.4 | 0.00 | 0.01 | 0.00 | 49 | 1016.7 |
| 20260507144003 | 48 | 167 | 6.1 | 8.7 | 0.00 | 0.01 | 0.00 | 40 | 1016.7 |
| 20260507143603 | 47 | 187 | 6.1 | 8.7 | 0.00 | 0.01 | 0.00 | 23 | 1016.8 |
| 20260507143102 | 46 | 153 | 6.1 | 7.8 | 0.00 | 0.01 | 0.00 | 1 | 1016.8 |
| 20260507142558 | 45 | 178 | 4.3 | 6.1 | 0.00 | 0.01 | 0.00 | 1 | 1016.8 |
| 20260507142056 | 44 | 170 | 3.5 | 6.1 | 0.00 | 0.01 | 0.00 | 1 | 1016.8 |
| 20260507141602 | 43 | 175 | 4.3 | 7.0 | 0.00 | 0.01 | 0.00 | 1 | 1016.7 |
| 20260507141053 | 43 | 170 | 5.2 | 7.0 | 0.00 | 0.01 | 0.00 | 1 | 1016.7 |
| 20260507140552 | 42 | 164 | 5.2 | 7.0 | 0.00 | 0.01 | 0.00 | 1 | 1016.6 |
| 20260507140107 | 41 | 175 | 5.2 | 7.8 | 0.00 | 0.01 | 0.00 | 1 | 1016.6 |
| 20260507135548 | 40 | 166 | 6.1 | 7.8 | 0.00 | 0.01 | 0.00 | 1 | 1016.6 |
| 20260507135048 | 39 | 173 | 4.3 | 6.1 | 0.00 | 0.01 | 0.00 | 1 | 1016.6 |
| 20260507134546 | 38 | 148 | 3.5 | 7.0 | 0.00 | 0.01 | 0.00 | 1 | 1016.6 |
| 20260507134044 | 37 | 158 | 4.3 | 6.1 | 0.00 | 0.01 | 0.00 | 1 | 1016.6 |
| 20260507133543 | 36 | 158 | 3.5 | 7.0 | 0.00 | 0.01 | 0.00 | 1 | 1016.5 |
| 20260507133041 | 36 | 136 | 3.5 | 7.0 | 0.00 | 0.01 | 0.00 | 1 | 1016.5 |
| 20260507132539 | 35 | 118 | 2.6 | 6.1 | 0.00 | 0.01 | 0.00 | 1 | 1016.5 |
| 20260507132040 | 35 | 155 | 3.5 | 6.1 | 0.00 | 0.01 | 0.00 | 1 | 1016.5 |
| 20260507131538 | 34 | 155 | 4.3 | 6.1 | 0.00 | 0.01 | 0.00 | 1 | 1016.6 |
| 20260507131037 | 34 | 158 | 4.3 | 6.1 | 0.00 | 0.01 | 0.00 | 1 | 1016.5 |
| 20260507130534 | 34 | 194 | 3.5 | 4.3 | 0.00 | 0.01 | 0.00 | 1 | 1016.5 |
| 20260507130036 | 34 | 184 | 1.7 | 3.5 | 0.00 | 0.01 | 0.00 | 1 | 1016.5 |
| 20260507125534 | 33 | 184 | 0.9 | 3.5 | 0.00 | 0.01 | 0.00 | 1 | 1016.5 |
| 20260507125030 | 33 | 184 | 0.9 | 3.5 | 0.00 | 0.01 | 0.00 | 1 | 1016.4 |
| 20260507124528 | 33 | 184 | 0.0 | 3.5 | 0.00 | 0.01 | 0.00 | 1 | 1016.4 |
| 20260507124027 | 32 | 184 | 0.0 | 3.5 | 0.00 | 0.01 | 0.00 | 1 | 1016.5 |
| 20260507123525 | 32 | 184 | 1.7 | 3.5 | 0.00 | 0.01 | 0.00 | 1 | 1016.4 |
| 20260507123026 | 33 | 219 | 0.0 | 2.6 | 0.00 | 0.01 | 0.00 | 1 | 1016.4 |
| 20260507122521 | 33 | 219 | 0.9 | 2.6 | 0.00 | 0.01 | 0.00 | 1 | 1016.4 |
| 20260507122021 | 33 | 219 | 0.9 | 3.5 | 0.00 | 0.01 | 0.00 | 1 | 1016.3 |
| 20260507121519 | 33 | 194 | 0.9 | 2.6 | 0.00 | 0.01 | 0.00 | 1 | 1016.3 |
| 20260507121021 | 33 | 203 | 0.0 | 1.7 | 0.00 | 0.01 | 0.00 | 1 | 1016.4 |
| 20260507120515 | 33 | 193 | 0.0 | 1.7 | 0.00 | 0.01 | 0.00 | 1 | 1016.4 |
| 20260507120014 | 32 | 193 | 0.0 | 1.7 | 0.00 | 0.01 | 0.00 | 1 | 1016.3 |
| 20260507115513 | 32 | 193 | 0.0 | 1.7 | 0.00 | 0.01 | 0.00 | 1 | 1016.3 |
| 20260507115013 | 32 | 193 | 0.0 | 1.7 | 0.00 | 0.01 | 0.00 | 1 | 1016.2 |
| 20260507114510 | 32 | 193 | 0.0 | 2.6 | 0.00 | 0.01 | 0.00 | 1 | 1016.2 |
| 20260507114010 | 31 | 193 | 0.9 | 2.6 | 0.00 | 0.01 | 0.00 | 1 | 1016.2 |
| 20260507113508 | 31 | 193 | 0.0 | 1.7 | 0.00 | 0.01 | 0.00 | 1 | 1016.3 |
| 20260507113006 | 32 | 193 | 0.0 | 2.6 | 0.00 | 0.01 | 0.00 | 1 | 1016.3 |
| 20260507112505 | 32 | 193 | 1.7 | 3.5 | 0.00 | 0.01 | 0.00 | 1 | 1016.2 |
| 20260507112003 | 32 | 193 | 1.7 | 2.6 | 0.00 | 0.01 | 0.00 | 1 | 1016.2 |
| 20260507111502 | 32 | 193 | 0.0 | 1.7 | 0.00 | 0.01 | 0.00 | 1 | 1016.3 |
| 20260507111100 | 32 | 192 | 0.0 | 1.7 | 0.00 | 0.01 | 0.00 | 1 | 1016.4 |
| 20260507110559 | 32 | 193 | 0.9 | 1.7 | 0.00 | 0.01 | 0.00 | 1 | 1016.3 |
| 20260507110058 | 32 | 193 | 0.0 | 2.6 | 0.00 | 0.01 | 0.00 | 1 | 1016.3 |
| 20260507105556 | 33 | 192 | 0.0 | 2.6 | 0.00 | 0.01 | 0.00 | 1 | 1016.4 |
| 20260507105056 | 33 | 192 | 0.0 | 5.2 | 0.00 | 0.01 | 0.00 | 1 | 1016.4 |
| 20260507104553 | 33 | 192 | 1.7 | 5.2 | 0.00 | 0.01 | 0.00 | 1 | 1016.3 |
| 20260507104052 | 33 | 192 | 1.7 | 4.3 | 0.00 | 0.01 | 0.00 | 1 | 1016.4 |
| 20260507103550 | 33 | 192 | 2.6 | 4.3 | 0.00 | 0.01 | 0.00 | 1 | 1016.3 |
| 20260507103050 | 33 | 193 | 3.5 | 5.2 | 0.00 | 0.01 | 0.00 | 1 | 1016.3 |
| 20260507102548 | 33 | 203 | 1.7 | 5.2 | 0.00 | 0.01 | 0.00 | 1 | 1016.4 |
| 20260507102046 | 33 | 211 | 2.6 | 4.3 | 0.00 | 0.01 | 0.00 | 1 | 1016.3 |
| 20260507101547 | 33 | 178 | 2.6 | 5.2 | 0.00 | 0.01 | 0.00 | 1 | 1016.3 |
| 20260507101042 | 34 | 190 | 2.6 | 7.0 | 0.00 | 0.01 | 0.00 | 1 | 1016.4 |
| 20260507100541 | 34 | 182 | 4.3 | 7.0 | 0.00 | 0.01 | 0.00 | 1 | 1016.4 |
| 20260507100039 | 34 | 206 | 3.5 | 6.1 | 0.00 | 0.01 | 0.00 | 1 | 1016.5 |
| 20260507095538 | 33 | 195 | 2.6 | 6.1 | 0.00 | 0.01 | 0.00 | 1 | 1016.5 |
| 20260507095036 | 32 | 198 | 3.5 | 6.1 | 0.00 | 0.01 | 0.00 | 1 | 1016.5 |
| 20260507094536 | 32 | 190 | 0.0 | 3.5 | 0.00 | 0.01 | 0.00 | 1 | 1016.5 |
| 20260507094033 | 32 | 190 | 1.7 | 3.5 | 0.00 | 0.01 | 0.00 | 1 | 1016.6 |
| 20260507093531 | 32 | 190 | 1.7 | 4.3 | 0.00 | 0.01 | 0.00 | 1 | 1016.6 |
| 20260507093037 | 33 | 177 | 1.7 | 5.2 | 0.00 | 0.01 | 0.00 | 1 | 1016.6 |
| 20260507092532 | 33 | 196 | 3.5 | 5.2 | 0.00 | 0.01 | 0.00 | 1 | 1016.7 |
| 20260507092027 | 34 | 184 | 3.5 | 6.1 | 0.00 | 0.01 | 0.00 | 1 | 1016.5 |
| 20260507091526 | 33 | 192 | 4.3 | 7.0 | 0.00 | 0.01 | 0.00 | 1 | 1016.6 |
| 20260507091026 | 33 | 214 | 4.3 | 7.0 | 0.00 | 0.01 | 0.00 | 1 | 1016.6 |
| 20260507090525 | 33 | 207 | 1.7 | 3.5 | 0.00 | 0.01 | 0.00 | 1 | 1016.6 |
| 20260507090029 | 34 | 263 | 0.9 | 3.5 | 0.00 | 0.01 | 0.00 | 1 | 1016.7 |
| 20260507085520 | 34 | 263 | 0.0 | 2.6 | 0.00 | 0.01 | 0.00 | 1 | 1016.7 |
| 20260507085019 | 34 | 263 | 0.0 | 2.6 | 0.00 | 0.01 | 0.00 | 1 | 1016.7 |
| 20260507084517 | 34 | 263 | 0.9 | 2.6 | 0.00 | 0.01 | 0.00 | 1 | 1016.7 |
| 20260507084017 | 33 | 263 | 0.0 | 5.2 | 0.00 | 0.01 | 0.00 | 1 | 1016.7 |
| 20260507083515 | 33 | 224 | 1.7 | 4.3 | 0.00 | 0.01 | 0.00 | 1 | 1016.8 |
| 20260507083029 | 33 | 224 | 0.0 | 2.6 | 0.00 | 0.01 | 0.00 | 1 | 1016.7 |
| 20260507082511 | 33 | 224 | 0.0 | 0.0 | 0.00 | 0.01 | 0.00 | 1 | 1016.7 |
| 20260507082010 | 33 | 224 | 0.0 | 1.7 | 0.00 | 0.01 | 0.00 | 1 | 1016.6 |
| 20260507081511 | 33 | 224 | 0.0 | 2.6 | 0.00 | 0.01 | 0.00 | 1 | 1016.8 |
| 20260507081007 | 33 | 224 | 1.7 | 2.6 | 0.00 | 0.01 | 0.00 | 1 | 1016.8 |
| 20260507080506 | 33 | 224 | 0.9 | 2.6 | 0.00 | 0.01 | 0.00 | 1 | 1016.8 |
| 20260507075503 | 33 | 224 | 0.0 | 0.9 | 0.00 | 0.08 | 0.00 | 1 | 1017.0 |
| 20260507075001 | 33 | 224 | 0.0 | 2.6 | 0.00 | 0.08 | 0.00 | 1 | 1017.0 |
| 20260507074604 | 34 | 224 | 0.0 | 2.6 | 0.00 | 0.08 | 0.00 | 1 | 1017.0 |
| 20260507074057 | 35 | 224 | 1.7 | 2.6 | 0.00 | 0.08 | 0.00 | 1 | 1017.0 |
| 20260507073556 | 35 | 224 | 1.7 | 2.6 | 0.00 | 0.08 | 0.00 | 1 | 1017.0 |
| 20260507073106 | 35 | 224 | 0.0 | 1.7 | 0.00 | 0.08 | 0.00 | 1 | 1017.0 |
| 20260507072554 | 35 | 224 | 0.0 | 2.6 | 0.00 | 0.08 | 0.00 | 1 | 1017.1 |
| 20260507072052 | 36 | 224 | 0.0 | 2.6 | 0.00 | 0.08 | 0.00 | 1 | 1017.0 |
| 20260507071601 | 36 | 224 | 0.9 | 2.6 | 0.00 | 0.08 | 0.00 | 1 | 1017.0 |
| 20260507071051 | 36 | 224 | 0.0 | 2.6 | 0.00 | 0.08 | 0.00 | 1 | 1016.8 |
| 20260507070548 | 35 | 224 | 1.7 | 2.6 | 0.00 | 0.08 | 0.00 | 1 | 1016.9 |
| 20260507070046 | 35 | 168 | 0.0 | 2.6 | 0.00 | 0.08 | 0.00 | 5 | 1016.8 |
| 20260507065544 | 36 | 168 | 0.9 | 2.6 | 0.00 | 0.15 | 0.00 | 8 | 1016.9 |
| 20260507065046 | 36 | 168 | 0.9 | 2.6 | 0.00 | 0.15 | 0.00 | 8 | 1016.8 |
| 20260507064546 | 36 | 168 | 0.9 | 3.5 | 0.00 | 0.15 | 0.00 | 20 | 1016.7 |
| 20260507064040 | 36 | 168 | 0.0 | 3.5 | 0.00 | 0.15 | 0.00 | 31 | 1016.7 |
| 20260507063539 | 37 | 168 | 2.6 | 3.5 | 0.00 | 0.15 | 0.00 | 27 | 1016.6 |
| 20260507063040 | 37 | 168 | 0.0 | 1.7 | 0.00 | 0.15 | 0.00 | 30 | 1016.7 |
| 20260507062535 | 38 | 168 | 0.0 | 3.5 | 0.00 | 0.15 | 0.00 | 36 | 1016.9 |
| 20260507062034 | 38 | 168 | 1.7 | 3.5 | 0.00 | 0.15 | 0.00 | 35 | 1016.6 |
| 20260507061535 | 39 | 168 | 0.9 | 1.7 | 0.00 | 0.15 | 0.00 | 33 | 1016.7 |
| 20260507061033 | 39 | 168 | 0.0 | 1.7 | 0.00 | 0.15 | 0.00 | 34 | 1016.7 |
| 20260507060530 | 39 | 168 | 0.9 | 1.7 | 0.00 | 0.15 | 0.00 | 33 | 1016.6 |
| 20260507060029 | 40 | 168 | 0.0 | 0.0 | 0.00 | 0.15 | 0.00 | 29 | 1016.5 |
| 20260507055529 | 40 | 168 | 0.0 | 0.9 | 0.00 | 0.15 | 0.15 | 27 | 1016.5 |
| 20260507055030 | 40 | 168 | 0.0 | 1.7 | 0.00 | 0.15 | 0.15 | 24 | 1016.5 |
| 20260507054526 | 40 | 168 | 0.0 | 0.9 | 0.00 | 0.15 | 0.15 | 22 | 1016.4 |
| 20260507054024 | 40 | 168 | 0.0 | 0.0 | 0.00 | 0.15 | 0.15 | 20 | 1016.4 |
| 20260507053523 | 40 | 168 | 0.0 | 0.0 | 0.00 | 0.15 | 0.15 | 20 | 1016.3 |
| 20260507053023 | 40 | 168 | 0.0 | 0.9 | 0.00 | 0.15 | 0.15 | 21 | 1016.3 |
| 20260507052520 | 40 | 168 | 0.0 | 2.6 | 0.00 | 0.15 | 0.15 | 21 | 1016.3 |
| 20260507052019 | 40 | 168 | 0.9 | 2.6 | 0.00 | 0.15 | 0.15 | 23 | 1016.2 |
| 20260507051518 | 40 | 168 | 0.0 | 0.9 | 0.00 | 0.15 | 0.15 | 26 | 1016.2 |
| 20260507051015 | 39 | 168 | 0.0 | 0.9 | 0.00 | 0.15 | 0.15 | 36 | 1016.2 |
| 20260507050514 | 40 | 168 | 0.0 | 1.7 | 0.00 | 0.15 | 0.15 | 44 | 1016.3 |
| 20260507050013 | 40 | 168 | 0.0 | 1.7 | 0.00 | 0.15 | 0.15 | 45 | 1016.2 |
| 20260507045511 | 41 | 168 | 0.0 | 2.6 | 0.00 | 0.15 | 0.15 | 43 | 1016.2 |
| 20260507045009 | 42 | 168 | 0.0 | 2.6 | 0.00 | 0.15 | 0.15 | 44 | 1016.2 |
| 20260507044508 | 42 | 168 | 0.9 | 3.5 | 0.00 | 0.15 | 0.15 | 46 | 1016.2 |
| 20260507044008 | 42 | 168 | 1.7 | 3.5 | 0.00 | 0.15 | 0.15 | 43 | 1016.0 |
| 20260507043507 | 42 | 209 | 0.0 | 4.3 | 0.00 | 0.15 | 0.15 | 40 | 1016.0 |
| 20260507043006 | 41 | 176 | 3.5 | 4.3 | 0.00 | 0.15 | 0.15 | 39 | 1016.0 |
| 20260507042504 | 41 | 171 | 1.7 | 4.3 | 0.00 | 0.15 | 0.15 | 36 | 1015.9 |
| 20260507042001 | 40 | 175 | 2.6 | 6.1 | 0.00 | 0.15 | 0.15 | 37 | 1015.7 |
| 20260507041059 | 40 | 132 | 2.6 | 4.3 | 0.00 | 0.15 | 0.15 | 44 | 1015.7 |
| 20260507040600 | 40 | 214 | 0.9 | 3.5 | 0.00 | 0.15 | 0.15 | 44 | 1015.6 |
| 20260507040105 | 41 | 214 | 0.9 | 1.7 | 0.00 | 0.15 | 0.15 | 44 | 1015.6 |
| 20260507035555 | 41 | 214 | 0.0 | 2.6 | 0.00 | 0.15 | 0.15 | 46 | 1015.5 |
| 20260507035053 | 41 | 215 | 1.7 | 2.6 | 0.00 | 0.15 | 0.15 | 47 | 1015.6 |
| 20260507034557 | 42 | 214 | 0.9 | 2.6 | 0.00 | 0.15 | 0.15 | 46 | 1015.6 |
| 20260507034050 | 41 | 215 | 0.9 | 2.6 | 0.00 | 0.15 | 0.15 | 47 | 1015.5 |
| 20260507033549 | 42 | 215 | 0.9 | 2.6 | 0.00 | 0.15 | 0.15 | 49 | 1015.4 |
| 20260507033048 | 42 | 215 | 0.0 | 2.6 | 0.00 | 0.15 | 0.15 | 50 | 1015.3 |
| 20260507032547 | 43 | 215 | 0.0 | 2.6 | 0.00 | 0.15 | 0.15 | 50 | 1015.2 |
| 20260507032044 | 43 | 215 | 0.0 | 3.5 | 0.00 | 0.15 | 0.15 | 51 | 1015.1 |
| 20260507031543 | 44 | 215 | 0.9 | 3.5 | 0.00 | 0.15 | 0.15 | 52 | 1015.0 |
| 20260507031041 | 45 | 249 | 0.0 | 1.7 | 0.00 | 0.15 | 0.15 | 53 | 1015.0 |
| 20260507030541 | 45 | 249 | 0.0 | 1.7 | 0.00 | 0.15 | 0.15 | 53 | 1015.0 |
| 20260507030039 | 45 | 249 | 0.0 | 1.7 | 0.00 | 0.15 | 0.15 | 53 | 1015.0 |
| 20260507025538 | 46 | 249 | 0.0 | 1.7 | 0.00 | 0.15 | 0.15 | 53 | 1014.9 |
| 20260507025036 | 47 | 249 | 0.9 | 2.6 | 0.00 | 0.15 | 0.15 | 54 | 1014.9 |
| 20260507024536 | 48 | 249 | 0.9 | 2.6 | 0.00 | 0.15 | 0.15 | 53 | 1014.9 |
| 20260507024035 | 49 | 249 | 0.9 | 2.6 | 0.00 | 0.15 | 0.15 | 52 | 1014.9 |
| 20260507023532 | 50 | 249 | 0.0 | 2.6 | 0.00 | 0.15 | 0.15 | 51 | 1014.8 |
| 20260507023032 | 51 | 249 | 0.9 | 2.6 | 0.00 | 0.15 | 0.15 | 49 | 1014.8 |
| 20260507022532 | 53 | 249 | 0.9 | 2.6 | 0.00 | 0.15 | 0.15 | 46 | 1014.8 |
| 20260507022031 | 55 | 249 | 0.9 | 5.2 | 0.00 | 0.15 | 0.15 | 42 | 1014.7 |
| 20260507021529 | 58 | 247 | 0.9 | 5.2 | 0.00 | 0.15 | 0.15 | 39 | 1014.7 |
| 20260507021028 | 58 | 1 | 0.0 | 2.6 | 0.00 | 0.15 | 0.15 | 35 | 1014.7 |
| 20260507020527 | 59 | 1 | 0.0 | 2.6 | 0.00 | 0.15 | 0.15 | 34 | 1014.7 |
| 20260507020025 | 59 | 1 | 0.0 | 2.6 | 0.00 | 0.15 | 0.15 | 33 | 1014.7 |
| 20260507015526 | 59 | 360 | 0.9 | 3.5 | 0.00 | 0.15 | 0.15 | 31 | 1014.7 |
| 20260507015022 | 60 | 6 | 1.7 | 3.5 | 0.00 | 0.15 | 0.15 | 31 | 1014.7 |
| 20260507014521 | 60 | 211 | 1.7 | 4.3 | 0.00 | 0.15 | 0.15 | 31 | 1014.7 |
| 20260507014020 | 60 | 6 | 1.7 | 7.0 | 0.00 | 0.15 | 0.15 | 31 | 1014.8 |
| 20260507013518 | 60 | 359 | 3.5 | 7.8 | 0.00 | 0.15 | 0.15 | 29 | 1014.7 |
| 20260507013016 | 60 | 9 | 3.5 | 7.8 | 0.00 | 0.15 | 0.15 | 30 | 1014.7 |
| 20260507012518 | 61 | 350 | 3.5 | 8.7 | 0.00 | 0.15 | 0.15 | 30 | 1014.7 |
| 20260507012013 | 61 | 26 | 4.3 | 8.7 | 0.00 | 0.15 | 0.15 | 29 | 1014.7 |
| 20260507011523 | 61 | 18 | 4.3 | 8.7 | 0.00 | 0.15 | 0.15 | 29 | 1014.7 |
| 20260507011010 | 61 | 4 | 4.3 | 9.6 | 0.00 | 0.15 | 0.15 | 30 | 1014.7 |
| 20260507010509 | 61 | 345 | 4.3 | 9.6 | 0.00 | 0.15 | 0.15 | 30 | 1014.7 |
| 20260507010008 | 61 | 355 | 2.6 | 8.7 | 0.00 | 0.15 | 0.15 | 30 | 1014.7 |
| 20260507005512 | 61 | 37 | 4.3 | 9.6 | 0.00 | 0.15 | 0.15 | 29 | 1014.7 |
| 20260507005004 | 61 | 65 | 3.5 | 7.8 | 0.00 | 0.15 | 0.15 | 29 | 1014.7 |
| 20260507004505 | 61 | 41 | 5.2 | 8.7 | 0.00 | 0.15 | 0.15 | 29 | 1014.7 |
| 20260507004002 | 61 | 17 | 5.2 | 8.7 | 0.00 | 0.15 | 0.15 | 29 | 1014.7 |
| 20260507003600 | 62 | 24 | 5.2 | 9.6 | 0.00 | 0.15 | 0.15 | 29 | 1014.7 |
| 20260507003059 | 62 | 20 | 6.1 | 9.6 | 0.00 | 0.15 | 0.15 | 29 | 1014.7 |
| 20260507002557 | 61 | 20 | 4.3 | 10.4 | 0.00 | 0.15 | 0.15 | 29 | 1014.5 |
| 20260507002057 | 61 | 59 | 7.0 | 10.4 | 0.00 | 0.15 | 0.15 | 28 | 1014.6 |
| 20260507001613 | 61 | 28 | 6.1 | 12.2 | 0.00 | 0.15 | 0.15 | 29 | 1014.6 |
| 20260507001052 | 61 | 3 | 7.8 | 12.2 | 0.00 | 0.15 | 0.15 | 29 | 1014.6 |
| 20260507000553 | 61 | 32 | 6.1 | 13.0 | 0.00 | 0.15 | 0.15 | 29 | 1014.6 |
| 20260507000057 | 62 | 27 | 7.8 | 12.2 | 0.00 | 0.15 | 0.15 | 29 | 1014.5 |
| 20260506235549 | 62 | 37 | 7.8 | 11.3 | 0.00 | 0.15 | 0.15 | 29 | 1014.6 |
| 20260506235050 | 61 | 22 | 6.1 | 11.3 | 0.00 | 0.15 | 0.15 | 29 | 1014.7 |
| 20260506234547 | 61 | 55 | 7.8 | 11.3 | 0.00 | 0.15 | 0.15 | 29 | 1014.8 |
| 20260506234044 | 61 | 46 | 7.0 | 12.2 | 0.00 | 0.15 | 0.15 | 29 | 1014.8 |
| 20260506233543 | 61 | 22 | 8.7 | 13.9 | 0.00 | 0.15 | 0.15 | 29 | 1014.9 |
| 20260506233041 | 61 | 22 | 7.8 | 13.0 | 0.00 | 0.15 | 0.15 | 29 | 1014.9 |
| 20260506232539 | 61 | 22 | 7.0 | 13.0 | 0.00 | 0.15 | 0.15 | 29 | 1014.9 |
| 20260506232038 | 61 | 53 | 8.7 | 13.0 | 0.00 | 0.15 | 0.15 | 29 | 1014.9 |
| 20260506231537 | 61 | 41 | 8.7 | 13.9 | 0.00 | 0.15 | 0.15 | 29 | 1015.0 |
| 20260506231035 | 61 | 345 | 7.8 | 13.9 | 0.00 | 0.15 | 0.15 | 30 | 1015.0 |
| 20260506230533 | 61 | 31 | 8.7 | 13.9 | 0.00 | 0.15 | 0.15 | 30 | 1014.9 |
| 20260506230031 | 61 | 42 | 7.0 | 14.8 | 0.00 | 0.15 | 0.15 | 30 | 1015.0 |
| 20260506225531 | 60 | 10 | 11.3 | 14.8 | 0.00 | 0.15 | 0.15 | 31 | 1015.0 |
| 20260506225030 | 60 | 14 | 9.6 | 14.8 | 0.00 | 0.15 | 0.15 | 29 | 1015.1 |
| 20260506224530 | 60 | 44 | 8.7 | 15.6 | 0.00 | 0.15 | 0.15 | 30 | 1015.1 |
| 20260506224026 | 60 | 9 | 8.7 | 13.9 | 0.00 | 0.15 | 0.15 | 30 | 1015.2 |
| 20260506223526 | 60 | 35 | 8.7 | 19.1 | 0.00 | 0.15 | 0.15 | 31 | 1015.3 |
| 20260506223024 | 59 | 4 | 7.8 | 20.9 | 0.00 | 0.15 | 0.15 | 32 | 1015.2 |
| 20260506222522 | 59 | 13 | 12.2 | 20.9 | 0.00 | 0.15 | 0.15 | 30 | 1015.2 |
| 20260506222020 | 59 | 359 | 9.6 | 16.5 | 0.00 | 0.15 | 0.15 | 30 | 1015.2 |
| 20260506221518 | 59 | 2 | 11.3 | 17.4 | 0.00 | 0.15 | 0.15 | 30 | 1015.3 |
| 20260506221017 | 60 | 9 | 10.4 | 17.4 | 0.00 | 0.15 | 0.15 | 30 | 1015.3 |
| 20260506220516 | 59 | 8 | 7.8 | 13.9 | 0.00 | 0.15 | 0.15 | 30 | 1015.3 |
| 20260506220015 | 59 | 359 | 8.7 | 16.5 | 0.00 | 0.15 | 0.15 | 30 | 1015.3 |
| 20260506215513 | 59 | 3 | 9.6 | 16.5 | 0.00 | 0.15 | 0.15 | 31 | 1015.4 |
| 20260506215012 | 59 | 12 | 8.7 | 13.9 | 0.00 | 0.15 | 0.15 | 31 | 1015.4 |
| 20260506214510 | 59 | 26 | 9.6 | 18.2 | 0.00 | 0.15 | 0.15 | 32 | 1015.5 |
| 20260506214009 | 58 | 12 | 10.4 | 18.2 | 0.00 | 0.15 | 0.15 | 33 | 1015.6 |
| 20260506213507 | 58 | 14 | 8.7 | 14.8 | 0.00 | 0.15 | 0.15 | 32 | 1015.7 |
| 20260506213008 | 58 | 328 | 7.0 | 14.8 | 0.00 | 0.15 | 0.15 | 32 | 1015.7 |
| 20260506212508 | 58 | 345 | 8.7 | 14.8 | 0.00 | 0.15 | 0.15 | 33 | 1015.7 |
| 20260506212004 | 58 | 23 | 9.6 | 16.5 | 0.00 | 0.15 | 0.15 | 32 | 1015.7 |
| 20260506211501 | 58 | 350 | 9.6 | 16.5 | 0.00 | 0.15 | 0.15 | 33 | 1015.6 |
| 20260506211103 | 57 | 323 | 8.7 | 17.4 | 0.00 | 0.15 | 0.15 | 31 | 1015.7 |